User: anonymous   Login
Location: Caltech
(34.1382°N, 118.1253°W)
Time: 23:20:28
(UTC-07:00)
Language:

SL-16 R/B - Orbit

View from above orbital plane
View from above orbital plane
View from above satellite
View from above satellite

Ground track
Ground track

The orbit data is extracted from the following two-line orbital elements,

1 31793U 07029B   16182.17239758  .00000001  00000-0  25334-4 0  9993
2 31793  70.9768  48.5633 0002611 279.6633 189.5301 14.14367688464949
Epoch (UTC): 30 June 2016 04:08:15
Eccentricity: 0.0002611
inclination: 70.9768°
perigee height: 842 km
apogee height: 846 km
right ascension of ascending node: 48.5633°
argument of perigee: 279.6633°
revolutions per day: 14.14367688
mean anomaly at epoch: 189.5301°
orbit number at epoch: 46494

The dashed part of the orbit path shows where the satellite is in the earth's shadow,  

DLR